Terug naar catalogus

DELTA 2 R/B(2)

ActiefGTO
NORAD 22923·ROCKET BODY·🇺🇸 United States

Gelanceerd Dec 8, 1993 vanaf Cape Canaveral Space Force Station

Loading…

TLE

VerouderdSource: Space-Track

Epoch: Sep 12, 2026, 11:21 UTC

1 22923U 93076C   26255.47321249 -.00000122  00000-0  20125-2 0  9993
2 22923  22.9284 234.7564 7092086 298.4721 332.1303  2.24129989268336

Volg DELTA 2 R/B(2) in realtime met AllMySat

Download on the App Store